Location: Banios
(43.0451°N, 0.2335°E)
Time: 12:49:07
(UTC+00:00)

A-11 Canister half - Pass Details

Date: 11 May 2021
Orbit: 1513 x 1686 km, 47.2° (Epoch: 14 June)

Event Time Altitude Azimuth Distance (km) Brightness Sun altitude
Rises 22:26:23 0° 294° (WNW) 4,692 12.2 -25.5°
Reaches altitude 10° 22:29:48 10° 285° (WNW) 3,725 11.5 -25.7°
Maximum altitude 22:37:43 32° 227° (SW) 2,472 9.8 -26.3°
Enters shadow 22:39:35 29° 207° (SSW) 2,571 9.8 -26.4°
Drops below altitude 10° 22:45:50 10° 170° (S) 3,824 - -26.8°
Sets 22:49:26 0° 160° (SSE) 4,833 - -27.0°
